Lid_Strength_Index
4 5 7 6 5 6 6 7 8 7 6 6 7 7 6 5 5 5 5 5 4 4 2 2 1 1 0 0 0 -0 -0 -0 -0 0 0 0 1 -0 -1 -1 -2 -2 -2 -2
5 7 5 5 5 6 6 7 8 7 6 6 7 7 6 6 5 5 5 5 4 4 3 2 1 1 1 1 0 0 -0 -0 -0 -0 -0 -0 -0 -0 -1 -1 -1 -2 -2 -2
6 6 5 5 6 6 7 7 8 8 7 6 7 8 7 6 5 5 4 4 4 4 4 3 2 1 1 1 0 0 -0 -1 -1 -1 -1 -1 -1 -1 -0 -0 -0 -1 -2 -2
6 5 5 6 6 6 8 6 7 7 8 10 7 13 8 7 7 6 5 4 4 4 3 2 2 2 1 1 -0 -0 -0 -1 -1 -1 -1 -0 1 1 0 -0 -1 -1 -2 -2
7 6 6 7 6 6 8 6 6 7 8 9 9 11 9 7 8 7 5 5 4 3 3 3 2 1 1 0 0 -0 -1 -1 -1 -1 -1 0 0 0 -0 -0 -1 -1 -2 -2
5 4 5 6 5 5 5 6 7 7 8 13 10 10 10 9 8 7 5 5 4 3 3 2 1 1 1 0 0 -0 -0 -0 -1 -1 -1 -0 0 0 1 0 0 -0 -1 -1
6 6 5 5 6 5 6 8 12 13 12 12 9 10 10 7 6 6 6 5 4 3 3 2 2 2 1 1 0 0 0 0 -1 -1 -1 -0 -0 -1 -0 -0 0 0 0 -0
8 10 7 5 6 7 7 7 10 14 13 11 9 11 10 6 5 5 4 4 4 3 2 2 2 1 1 1 1 0 0 0 -0 -0 -0 -0 -1 0 0 -0 -0 -0 0 -0
8 9 6 6 5 6 8 8 7 10 9 11 10 9 7 6 6 5 5 5 4 3 3 2 2 1 1 1 1 0 0 0 -0 -0 -0 -0 -1 -1 -0 -1 -0 -0 -1 -1
7 9 7 6 5 5 7 6 9 9 13 14 11 11 10 9 7 6 6 5 4 3 3 2 2 1 1 1 0 0 -0 0 0 0 0 -0 -0 -0 0 0 0 -0 -1 -1
6 7 8 7 8 8 7 8 8 8 9 12 12 12 7 7 6 6 6 5 4 3 3 2 2 1 1 1 0 0 0 0 1 1 0 -0 0 0 0 0 -0 -1 -1 -1
6 6 8 9 6 6 7 8 8 10 12 9 10 11 6 6 5 5 5 4 4 3 3 2 2 1 1 1 1 0 0 1 1 1 0 0 0 1 0 -0 -1 -1 -0 -1
6 8 10 10 8 7 8 7 7 8 8 11 11 11 6 5 6 5 5 4 4 3 3 2 2 2 2 1 1 1 0 1 1 1 0 0 0 0 0 -0 -1 -1 -1 -1
5 8 9 10 9 7 9 8 7 8 10 10 9 9 8 7 6 5 5 4 4 3 3 2 2 2 1 1 1 1 1 1 1 1 0 0 0 0 -1 -1 -1 -0 -1 -0
6 9 8 8 7 7 8 8 8 9 8 10 9 9 7 6 6 5 4 4 4 4 3 3 2 2 1 1 1 0 1 1 1 1 1 0 -0 -0 -1 -1 -1 -1 -0 -0
6 9 8 9 8 8 9 8 8 8 8 8 8 9 6 5 4 5 5 4 4 4 3 3 2 2 2 1 1 1 1 1 1 1 1 0 1 0 -0 -1 -1 -1 -0 -0
7 8 9 10 8 8 10 8 8 8 7 8 10 7 6 6 5 5 4 4 4 3 3 3 2 2 1 1 1 1 1 1 1 2 1 1 1 1 -0 -0 -0 -0 0 -0
7 7 7 9 9 13 9 6 7 8 7 6 7 6 6 5 4 4 3 4 4 3 3 2 2 2 1 1 0 0 1 1 1 1 1 1 1 1 -0 -0 -0 -0 0 -0
5 6 9 10 10 9 8 8 8 8 8 6 6 6 5 4 4 5 3 3 3 2 2 2 1 1 1 1 0 0 1 1 2 2 1 1 1 1 1 0 -0 -0 -0 0
6 6 8 9 11 13 9 6 5 5 10 5 5 6 5 5 7 6 3 2 2 2 1 1 1 1 1 0 0 0 2 2 2 2 1 1 1 1 1 0 -0 -1 -0 0
8 8 9 10 10 8 6 5 5 11 9 4 4 4 5 6 5 3 2 2 2 1 1 1 1 1 1 0 0 1 2 2 2 2 1 1 1 0 -0 -0 -0 -0 -0 -0
8 9 9 9 11 12 5 6 8 5 3 3 4 4 4 4 3 3 2 2 2 2 2 1 1 1 0 -0 0 1 1 1 2 2 1 1 1 0 -0 -1 -0 0 -0 0
9 7 8 8 8 6 4 5 3 3 4 3 3 3 3 3 3 3 2 2 2 2 1 1 0 1 0 -0 -0 1 0 1 2 2 1 1 0 -0 -1 -0 -0 1 -1 0
7 6 7 8 6 5 5 4 3 3 3 3 2 3 3 3 3 3 2 2 2 1 1 1 1 1 1 0 -0 -1 -1 0 1 2 2 1 1 1 -0 -0 -0 0 1 1
6 6 7 7 6 5 4 3 3 3 2 3 2 2 2 2 2 2 2 2 2 1 1 1 1 1 1 0 0 -1 -1 -0 1 1 1 1 0 0 0 -1 -0 0 -1 2
5 6 7 7 5 5 4 3 2 3 3 2 3 3 2 2 2 2 2 2 1 1 1 1 1 1 1 1 0 -0 -1 -0 0 1 1 1 2 1 1 1 0 6 7 8